Location: Newark
(10.6500°N, 71.6000°W)
Time: 09:11:43
(UTC+00:00)

Envisat - Visible Passes

Search period start: 19 October 2019 00:00
Search period end: 29 October 2019 00:00
Orbit: 764 x 766 km, 98.1° (Epoch: 19 October)

Date Brightness Start Highest point End Pass type
(mag) Time Alt. Az. Time Alt. Az. Time Alt. Az.
19 Oct 3.0 22:59:31 10° SSE 23:04:31 61° ENE 23:09:30 10° N visible
21 Oct 5.4 00:02:45 10° SSW 00:06:40 23° W 00:10:37 10° NW visible
21 Oct 3.4 23:24:56 10° S 23:29:57 64° WSW 23:34:58 10° NNW visible
22 Oct 3.3 22:48:29 10° SSE 22:53:18 44° ENE 22:58:06 10° N visible
23 Oct 6.3 00:31:15 10° WSW 00:32:10 10° W 00:33:06 10° W visible
23 Oct 4.9 23:51:00 10° SSW 23:55:25 31° W 23:59:51 10° NW visible
24 Oct 3.0 23:13:38 10° SSE 23:18:43 87° WSW 23:23:47 10° NNW visible
26 Oct 6.0 00:18:07 10° SW 00:20:55 15° W 00:23:42 10° WNW visible
26 Oct 4.3 23:39:24 10° S 23:44:09 41° W 23:48:56 10° NNW visible
27 Oct 2.9 23:02:26 10° SSE 23:07:29 69° ENE 23:12:31 10° N visible
